Tracking 29892 objects as of 21-Nov-2024
HD Live streaming from Space Station
objects crossing your sky now

STARLINK-30074

Track STARLINK-30074 now!
10-day predictions
STARLINK-30074 is classified as:


NORAD ID: 57508
Int'l Code: 2023-113P
Perigee: 564.9 km
Apogee: 567.5 km
Inclination: 43.0 °
Period: 95.8 minutes
Semi major axis: 6937 km
RCS: Unknown
Launch date: August 7, 2023
Source: United States (US)
Launch site: AIR FORCE EASTERN TEST RANGE (AFETR)
Your satellite tracking list
Your tracking list is empty




NASA's NSSDC Master Catalog

Two Line Element Set (TLE):
1 57508U 23113P   24325.77696178  .00000235  00000-0  32446-4 0  9995
2 57508  43.0072  72.2503 0001872 267.4262  92.6366 15.02540062 72162
Source of the keplerian elements: AFSPC